Regional Weather Roundup
Issued by NWS

Home | Current Version | Previous Version | Text Only | Print | Product List | Glossary On
Versions: 1 2 3 4 5 6 7 8 9 10 11 12 13 14 15 16 17 18 19 20 21 22 23 24 25 26 27 28 29 30 31 32 33 34 35 36 37 38 39 40 41 42 43 44 45 46 47 48 49 50
000
ASUS42 KFFC 011003
RWRGA
WEATHER ROUNDUP FOR GEORGIA
NATIONAL WEATHER SERVICE PEACHTREE CITY GA
600 AM EDT WED OCT 01 2014

NOTE: "FAIR" INDICATES FEW OR NO CLOUDS BELOW 12,000 FEET WITH NO
SIGNIFICANT WEATHER AND/OR OBSTRUCTIONS TO VISIBILITY.

* = USE WITH CAUTION. THE STATIONS MARKED WITH AN ASTERISK MAY NOT
REPORT WEATHER SUCH AS PRECIPITATION, FOG, OR THUNDER AND ARE NOT
QUALITY CONTROLLED BY NWS.

THE REMARK "TC" DENOTES TEMPERATURE READING IN DEGREES CELSIUS.

GAZ001>058-011100-
NORTH GEORGIA

CITY           SKY/WX    TMP DP  RH WIND       PRES   REMARKS
ATLANTA        PTCLDY    66  63  90 W6        29.96R
ATHENS         MOCLDY    60  59  96 CALM      29.96R
CHAMBLEE       CLEAR     60  58  92 CALM      29.96R
PEACHTREE CITY MOCLDY    59  58  96 CALM      29.97R FOG
ROME           CLEAR     58  56  93 CALM      29.95R FOG
WEST ATLANTA   CLEAR     59  57  93 CALM      29.96R
GAINESVILLE    MOCLDY    63  60  90 CALM      29.99R
CARTERSVILLE   CLEAR     55  54  96 CALM      29.97R FOG


CITY           SKY/WX    TMP DP  RH WIND       PRES   REMARKS
DALTON*        FOG       55  55 100 CALM      29.97R VSB 1/4
MARIETTA       CLEAR     60  59  97 NW2       29.97R
$$

GAZ059>098-102>109-011100-
CENTRAL GEORGIA

CITY           SKY/WX    TMP DP  RH WIND       PRES   REMARKS
AUGUSTA-BUSH   CLEAR     57  57 100 CALM      29.93R FOG
AUGUSTA-DANIEL CLEAR     66  63  90 CALM      29.94R
COLUMBUS       CLEAR     64  62  93 CALM      29.93S
MACON          CLEAR     58  58 100 CALM      29.94R
ROBINS AFB     MOCLDY    63  63 100 NE1       29.94R FOG


CITY           SKY/WX    TMP DP  RH WIND       PRES   REMARKS
LAGRANGE*      FOG       62  62 100 CALM      29.96S VSB 1/2
SYLVANIA*      CLEAR     64  63  99 CALM      29.93R
MILLEDGEVILLE* CLOUDY    63  63 100 CALM      29.94S
$$

GAZ099>101-110>166-011100-
SOUTH GEORGIA

CITY           SKY/WX    TMP DP  RH WIND       PRES   REMARKS
SAVANNAH       NOT AVBL
VALDOSTA       CLOUDY    72  68  87 CALM      29.92R
ALMA           CLOUDY    65  64  97 CALM      29.92R FOG
ST SIMONS      MOCLDY    67  66  97 CALM      29.91R
FT STEWART     CLEAR     63  62  95 CALM      29.91R
ALBANY         CLEAR     65  64  97 CALM      29.94R
HUNTER AFB     CLEAR     65  65 100 NW2       29.90R
MOODY AFB      CLOUDY    71  68  90 NE2       29.92R
BRUNSWICK      CLOUDY    68  64  88 CALM      29.92R


CITY           SKY/WX    TMP DP  RH WIND       PRES   REMARKS
BAINBRIDGE*    FOG       66  64  94 CALM      29.92R VSB 1/2
MOULTRIE*      CLEAR     66  66 100 CALM      29.93R
VIDALIA*       CLEAR     64  64 100 CALM      29.94R
WAYCROSS*      CLOUDY    69  69 100 CALM      29.92R FOG
DOUGLAS*       PTCLDY    68  66  94 NE3       29.94R
$$


USA.gov is the U.S. government's official web portal to all federal, state and local government web resources and services.